Theta_e
346 350 356 348 356 357 357 354 352 352 351 349 348 352 349 351 349 354 348 350 350 347 344 343 342 340 338 335 333 331 332 332 335 336 333 332 334 333 333 335 336 335 335 335 335 336 336 335 339
347 354 356 344 358 358 356 352 354 351 348 350 351 351 348 349 347 350 349 350 349 348 346 341 341 340 339 338 335 335 333 335 336 334 332 331 334 332 331 334 334 333 335 335 335 334 334 334 334
354 355 358 363 351 357 354 350 348 350 349 349 350 351 349 349 349 350 349 348 347 347 347 343 343 342 340 341 338 336 336 335 334 334 331 330 333 331 333 334 332 333 335 335 335 333 333 333 335
358 359 359 361 350 349 349 347 347 347 349 349 348 351 349 349 349 349 348 348 349 351 344 342 342 343 341 341 341 338 335 335 332 331 331 331 333 333 334 333 331 333 335 336 333 336 331 334 338
360 356 360 345 348 349 347 348 345 347 349 349 349 351 352 350 348 349 349 350 350 350 343 343 341 339 340 339 338 336 333 331 331 331 331 333 334 334 333 332 333 333 338 335 335 335 330 332 338
357 354 357 341 340 346 345 348 346 347 348 350 349 350 350 350 352 351 350 351 350 351 348 345 344 342 340 341 335 332 332 331 331 332 334 334 334 333 332 336 337 338 338 337 338 339 338 334 335
352 353 348 338 339 342 342 342 346 344 347 348 350 351 349 350 351 350 350 351 351 351 349 346 344 343 339 333 332 331 331 331 332 333 333 334 334 333 335 339 339 340 340 341 338 339 340 337 339
349 350 349 342 339 338 340 343 341 341 347 346 349 349 350 351 352 350 351 352 351 352 349 350 345 343 337 332 331 331 331 331 330 331 332 335 336 340 349 349 344 341 342 341 339 339 339 341 341
347 349 349 343 340 339 340 340 343 344 344 347 348 348 349 347 348 351 352 350 349 351 351 352 349 347 345 333 333 333 332 331 331 332 335 337 334 348 353 350 344 341 340 342 342 340 347 347 345
345 347 345 343 342 339 341 340 341 341 342 344 348 348 348 347 348 348 352 352 351 350 350 351 350 350 349 350 333 333 332 332 333 339 346 343 351 350 349 345 349 350 348 347 348 346 347 348 349
343 346 344 345 341 340 339 340 339 342 343 343 348 349 348 347 347 346 351 350 350 352 351 352 350 349 347 349 345 341 344 346 348 345 348 351 351 350 351 351 348 349 350 349 350 343 339 349 350
345 343 342 342 340 342 340 339 339 342 341 343 348 349 349 347 346 345 349 348 352 349 351 352 351 349 350 350 346 347 350 347 350 350 347 345 346 346 346 350 348 350 350 350 350 350 349 349 348
339 344 342 339 339 340 341 341 338 340 342 343 346 348 348 348 346 345 346 348 351 347 351 352 353 349 350 352 348 349 349 348 348 348 349 346 349 350 348 343 346 349 347 348 350 348 347 346 345
336 338 339 337 337 338 342 342 339 338 341 343 345 346 347 347 346 346 346 347 350 349 349 349 350 350 344 351 351 348 349 350 346 348 349 348 347 348 348 349 347 347 349 350 347 347 345 343 343
335 337 337 337 337 339 341 343 341 339 340 343 344 345 345 346 346 346 346 347 349 348 349 349 352 351 346 346 350 349 350 348 349 347 349 351 350 345 347 348 347 347 349 349 348 346 345 344 349
334 336 338 338 338 339 339 346 341 341 340 342 345 345 345 345 345 346 347 348 349 350 350 350 351 354 353 349 352 347 346 349 348 350 348 349 351 349 347 346 349 350 349 348 347 345 345 345 340
334 336 338 339 338 340 339 346 344 343 341 342 343 344 344 345 345 346 346 347 349 349 350 350 351 351 353 350 349 352 353 352 347 350 351 348 349 348 348 347 350 349 351 347 344 347 345 342 339
334 336 337 340 340 340 341 346 342 342 341 342 343 344 344 345 345 346 347 347 348 349 349 351 351 351 352 352 349 351 350 353 350 353 349 349 351 348 352 347 349 348 345 346 348 346 344 333 336
334 337 338 340 342 341 345 348 345 344 343 340 343 342 343 344 345 346 347 347 348 349 350 350 351 351 354 353 354 350 352 350 345 352 352 353 350 349 348 347 348 347 342 348 345 343 334 337 339
333 336 339 340 343 345 342 350 347 348 346 342 341 342 342 343 344 346 347 348 348 349 350 351 351 352 351 353 353 351 348 352 351 351 347 348 347 349 349 346 350 346 347 348 344 333 333 337 337
333 335 339 341 341 341 341 342 343 346 346 345 344 342 341 341 342 346 347 348 349 349 350 351 352 352 353 351 352 350 354 352 353 352 352 348 347 347 349 349 348 351 347 339 339 340 335 338 338
333 335 336 338 342 344 343 345 348 346 349 346 344 344 343 342 342 343 347 349 349 349 350 353 353 352 352 350 357 349 352 352 346 346 347 349 351 349 350 345 349 348 337 338 337 338 337 331 339
333 335 335 336 339 345 347 345 347 347 349 349 346 344 344 344 343 343 345 347 349 350 352 354 354 354 351 351 355 356 352 349 349 348 347 347 348 346 350 348 346 343 331 338 337 340 326 341 334
332 333 335 336 338 344 345 345 348 349 346 346 346 345 346 345 345 343 343 345 348 350 352 353 355 355 354 354 350 354 357 350 349 349 348 347 346 346 347 346 348 330 336 342 336 331 326 334 336
329 331 336 338 342 341 343 349 349 347 346 345 344 343 346 346 345 345 344 345 349 350 351 354 356 356 356 354 355 349 355 355 349 350 350 349 344 348 342 348 346 324 326 340 337 330 339 331 329
328 330 336 340 341 340 340 342 348 346 344 342 341 342 344 346 347 346 346 345 348 349 350 353 357 356 355 354 354 351 347 354 348 352 354 350 347 347 347 345 337 328 327 328 326 320 322 334 334
328 329 331 333 337 340 340 340 341 345 343 345 343 342 342 346 347 347 347 347 347 349 349 351 354 356 355 354 351 351 347 344 347 348 353 351 345 346 346 345 343 332 326 327 322 323 328 333 337
328 330 330 331 338 343 341 343 345 348 345 345 344 342 340 344 346 348 346 347 348 349 350 350 351 353 355 354 351 347 343 338 341 347 348 349 351 344 345 343 341 331 325 324 326 327 331 326 323
328 328 329 330 334 339 342 343 343 346 348 346 344 341 340 338 344 347 347 345 346 347 350 350 352 352 355 355 352 345 343 339 340 345 348 348 347 347 344 343 341 337 325 324 324 329 338 329 324
329 329 329 331 338 336 339 342 339 341 344 346 343 340 339 338 338 342 347 346 346 345 348 350 353 354 354 354 353 345 343 339 339 340 344 343 342 345 344 341 339 339 329 323 323 322 333 324 321
Wind_Speed
15 10 17 10 3 3 3 7 16 11 13 15 16 12 11 3 2 11 17 21 22 22 24 24 26 25 25 25 26 26 25 23 20 18 17 15 14 14 13 13 13 13 12 12 13 13 13 13 13
16 15 21 17 4 5 5 17 18 5 19 32 25 15 19 21 29 26 25 24 22 22 21 23 23 23 23 24 24 23 23 20 18 16 14 13 13 12 12 12 12 11 10 11 12 12 12 12 12
14 19 8 7 4 4 6 10 16 20 14 11 17 17 14 25 23 23 27 28 25 22 18 21 21 21 21 21 21 21 20 18 16 14 11 10 10 10 10 11 10 9 10 11 11 11 11 11 11
8 20 20 13 16 9 14 13 14 16 22 21 26 20 30 24 28 30 29 25 22 19 18 19 20 21 21 20 19 19 18 17 14 12 9 8 9 9 9 8 9 9 9 10 11 11 10 10 11
15 9 8 4 16 16 11 25 21 9 27 30 31 25 29 27 29 28 24 21 21 18 19 18 19 19 19 19 19 19 17 15 12 10 10 8 7 7 7 8 8 7 9 10 10 11 10 10 11
16 16 15 3 9 12 11 17 14 21 25 30 29 24 25 30 32 25 22 21 18 18 17 19 19 18 18 17 18 17 15 13 12 11 9 7 6 6 6 7 7 7 9 9 9 10 10 9 10
18 13 15 8 9 9 10 4 18 18 21 24 29 17 28 26 26 22 22 20 21 19 15 18 19 18 17 17 17 15 14 13 11 9 6 5 6 7 8 8 10 9 9 9 9 10 9 9 11
17 13 21 3 13 12 8 16 7 14 24 24 25 16 21 28 28 24 25 27 24 21 13 14 16 17 17 18 16 15 13 12 9 6 4 6 6 5 9 9 12 12 10 10 11 9 9 10 12
20 2 13 9 14 15 11 12 14 20 18 20 12 26 29 25 25 25 34 27 21 18 17 15 13 14 12 17 16 12 11 9 6 5 6 4 2 4 2 10 13 12 13 11 13 12 11 9 10
10 6 6 17 5 12 12 15 16 13 16 10 28 28 28 26 25 29 27 22 22 20 17 16 17 15 12 11 12 10 7 5 4 3 3 4 6 4 5 9 9 8 12 11 9 6 3 5 9
16 6 16 33 19 17 13 19 13 22 13 16 34 30 28 27 24 23 25 22 19 20 21 19 16 15 14 18 5 4 3 0 2 1 3 1 5 2 7 5 9 10 9 8 8 7 10 12 11
12 19 31 18 11 11 13 20 13 15 18 22 25 28 29 27 25 23 24 22 26 20 22 22 22 18 16 18 4 6 9 2 8 8 5 8 2 1 5 6 8 7 7 7 7 14 8 7 8
17 26 25 7 11 10 11 16 18 9 24 22 25 29 29 27 24 22 21 22 21 20 16 26 21 18 21 13 10 12 11 10 7 9 9 7 3 6 8 8 8 8 3 6 6 7 8 8 7
20 12 15 4 10 8 16 17 16 17 18 24 25 29 28 27 26 24 23 23 24 21 19 21 20 18 25 22 14 15 14 7 12 7 12 10 7 9 7 8 10 6 6 7 10 11 9 5 5
25 18 7 9 11 10 13 17 12 23 18 23 24 27 28 27 26 26 24 24 23 23 22 22 19 20 19 23 17 20 11 11 8 10 6 8 12 13 15 12 10 6 9 8 11 7 4 6 10
22 18 13 19 15 13 16 8 14 25 21 23 25 27 28 27 27 26 25 24 24 23 24 23 19 19 17 18 17 16 10 12 15 10 11 11 14 12 13 9 5 7 8 9 15 6 5 9 7
22 17 19 9 13 16 16 9 10 19 20 25 25 26 27 27 27 27 26 26 26 25 25 25 22 22 21 16 17 13 14 16 14 13 11 12 10 13 12 5 9 8 9 12 8 3 4 3 5
21 21 18 16 17 18 14 14 12 30 24 25 26 27 27 28 28 29 27 27 26 26 27 25 24 21 24 18 14 16 14 15 15 14 14 14 11 10 13 5 11 14 14 5 5 2 8 8 4
23 20 24 12 7 17 18 19 21 36 30 24 27 26 28 28 28 29 28 28 27 27 28 29 27 27 21 22 21 21 21 20 18 13 11 10 13 13 14 14 11 7 4 5 3 9 5 4 1
27 27 24 15 24 24 17 27 29 28 23 25 27 28 27 28 29 30 30 29 30 30 31 30 31 30 31 24 21 15 11 11 13 10 15 16 13 11 11 7 4 2 2 5 9 11 3 3 4
28 27 22 16 20 22 18 19 21 22 24 25 25 30 29 30 31 34 32 32 32 34 33 34 33 32 30 26 20 21 18 15 9 11 13 13 11 12 10 12 9 7 9 6 6 4 3 0 1
26 26 26 22 17 12 16 13 12 16 22 21 26 26 33 33 33 33 35 35 34 34 35 33 32 31 31 28 23 19 19 13 12 11 12 16 8 4 11 8 9 10 8 6 3 2 4 4 3
26 26 26 25 21 16 22 8 15 21 18 24 21 29 28 34 33 34 37 37 35 34 35 35 32 31 31 29 30 23 20 15 15 13 16 11 11 13 13 12 12 11 11 9 9 8 7 4 2
25 24 25 22 19 15 20 14 21 20 24 22 24 31 31 29 35 36 35 37 40 37 37 38 37 35 31 31 30 29 21 22 17 15 17 17 21 16 17 12 16 11 14 9 6 5 5 10 9
28 25 15 18 17 17 22 23 15 19 23 21 10 26 34 33 32 37 37 39 43 42 40 39 41 38 35 33 31 30 28 24 24 20 20 14 14 14 14 19 18 13 14 11 9 6 8 4 9
25 25 16 20 17 19 23 21 15 24 22 20 35 55 38 36 32 35 39 39 42 45 43 41 42 41 37 34 37 31 32 30 30 26 20 21 18 18 17 17 15 14 14 18 12 10 8 4 5
27 25 26 26 23 17 18 23 23 18 19 24 32 14 19 39 37 37 38 40 38 43 46 46 42 41 40 36 36 36 32 38 34 33 25 19 20 18 23 22 22 18 17 16 13 13 12 15 9
29 19 24 20 26 25 21 21 12 19 20 22 18 27 22 30 34 35 35 38 39 39 44 45 46 43 42 40 37 38 37 36 38 33 31 29 23 21 23 26 26 23 21 19 17 15 14 9 8
20 23 24 22 20 17 17 16 16 16 24 22 20 28 31 24 27 36 38 38 40 38 40 44 45 45 44 42 39 39 40 38 36 36 34 34 31 29 25 27 27 24 23 22 20 18 15 13 10
28 28 28 17 22 18 18 16 13 14 14 20 17 22 24 21 25 30 37 39 41 43 41 44 43 45 46 45 42 41 41 40 41 40 39 39 36 35 36 35 33 29 27 25 23 19 23 19 14
Wind_Direction
196 158 123 82 325 187 169 111 94 112 104 124 90 54 108 98 100 105 131 123 125 126 129 132 132 135 135 135 132 133 133 135 128 118 111 106 98 93 89 82 76 67 60 53 48 48 46 49 54
195 163 176 111 266 29 90 88 115 164 114 108 110 141 101 87 104 121 127 131 126 124 129 132 136 136 136 131 132 133 137 134 127 121 114 104 92 91 83 75 65 62 60 53 44 42 47 47 55
181 197 211 189 154 138 101 172 101 110 120 77 107 137 92 115 112 121 132 132 132 130 146 137 138 141 136 132 135 138 135 134 131 126 119 103 95 88 78 68 58 60 53 44 42 37 42 52 52
190 242 251 263 129 201 118 102 118 99 99 102 99 87 107 108 120 129 134 134 133 136 149 137 134 137 139 137 138 140 143 139 131 128 120 112 97 88 74 60 48 49 40 37 39 39 38 47 53
213 242 252 348 93 116 119 83 56 100 95 100 107 98 107 121 129 132 136 137 127 142 149 143 139 139 141 142 142 144 142 140 135 131 130 116 103 86 67 44 37 37 31 33 38 45 43 37 49
234 254 280 82 82 104 100 138 151 102 104 115 114 101 121 129 132 137 143 140 144 141 148 149 147 149 145 146 144 145 147 145 144 141 133 120 103 77 55 39 33 29 29 30 36 46 43 39 39
249 278 287 105 117 110 86 120 129 107 128 120 121 126 133 136 138 141 144 143 142 142 151 153 154 154 150 146 147 150 150 150 148 146 141 112 65 41 28 27 35 22 22 23 28 39 44 48 42
289 291 301 153 146 121 134 90 98 127 122 130 128 135 142 153 152 145 150 143 134 151 148 143 154 155 155 155 154 155 156 155 154 156 128 75 55 13 18 21 4 9 13 24 27 37 38 57 50
223 285 289 323 110 119 163 112 98 106 123 149 117 148 147 150 151 149 148 141 145 143 150 153 153 158 161 171 169 166 167 171 173 167 105 102 136 11 6 354 4 11 24 30 35 54 49 37 38
81 329 310 255 70 128 160 142 115 126 138 148 136 141 145 156 156 146 142 145 149 162 165 157 164 156 165 171 176 183 182 186 201 115 89 113 323 17 312 338 356 8 23 18 29 48 69 37 4
150 203 287 287 145 160 160 129 141 138 166 145 133 144 155 160 162 164 151 157 165 163 167 168 177 164 153 190 206 165 98 195 352 325 254 286 264 245 311 331 321 352 23 6 341 332 347 30 326
139 188 236 250 149 165 170 135 143 155 161 153 147 157 161 165 168 170 163 159 164 173 181 177 168 165 189 194 206 158 206 204 234 252 272 221 260 320 296 307 336 2 324 335 327 335 1 330 334
208 189 237 178 148 173 203 146 132 136 138 149 150 161 167 170 173 174 172 165 172 175 183 175 171 180 180 180 198 207 209 197 202 249 290 315 235 274 287 276 272 294 290 319 343 287 281 315 299
249 246 253 196 220 197 187 141 136 140 145 149 157 169 174 176 177 176 179 172 175 178 181 184 193 202 195 187 191 206 185 215 207 230 264 275 276 229 264 280 281 305 314 274 286 294 285 351 332
268 267 233 247 248 177 234 144 165 145 158 155 165 174 178 182 182 182 183 178 182 185 187 194 195 211 209 198 213 200 197 219 220 213 259 259 272 260 236 255 276 292 289 292 303 331 353 345 322
261 251 246 228 200 169 203 153 162 152 169 167 171 178 180 186 186 185 187 186 189 190 193 194 195 206 212 206 213 215 198 224 219 234 255 258 255 278 279 272 306 289 283 296 296 311 352 352 297
245 241 235 193 201 159 201 124 306 167 180 172 178 181 184 187 190 189 190 190 193 195 196 198 199 204 217 222 209 214 211 236 239 217 243 264 256 277 279 252 287 246 255 281 289 277 328 280 301
235 232 235 207 195 191 172 136 222 250 181 184 182 183 188 190 195 190 195 195 195 196 200 202 200 200 220 223 216 209 216 228 239 243 259 242 257 263 264 229 260 273 280 273 302 318 286 321 347
245 238 230 203 58 207 158 156 174 240 222 192 183 189 190 195 195 195 196 196 197 199 200 205 201 202 201 201 208 212 219 233 234 219 246 243 250 272 252 252 241 297 267 250 284 280 287 351 339
244 254 243 190 173 226 194 177 175 203 189 191 188 188 196 194 195 196 194 200 198 200 204 208 207 206 210 209 215 226 217 240 251 234 227 250 262 243 257 256 245 261 271 243 292 317 209 156 279
234 244 250 249 195 195 207 207 201 177 184 194 200 190 196 198 198 191 196 199 200 201 205 210 212 207 213 208 219 214 219 218 202 229 230 274 264 254 226 241 209 191 211 259 284 14 28 93 332
227 232 250 255 243 184 251 226 200 214 185 191 190 206 194 196 200 201 195 198 204 203 205 212 216 214 218 207 208 211 221 205 236 226 260 244 238 182 229 214 205 224 177 226 295 209 188 136 86
228 230 238 254 249 176 195 251 264 209 188 187 193 200 208 196 199 204 199 200 202 205 202 205 216 216 217 214 203 204 209 213 211 223 221 211 219 220 209 206 212 219 184 216 216 225 187 136 182
228 238 245 245 253 220 223 207 253 187 181 251 189 201 201 206 196 200 204 199 199 204 203 204 211 218 220 215 211 204 210 209 213 208 228 234 239 217 202 202 213 211 174 220 226 230 197 190 197
231 226 231 235 235 242 212 196 211 191 200 213 227 278 200 200 198 192 197 198 195 198 202 202 207 216 221 214 217 209 203 211 208 205 221 225 209 230 209 202 224 212 185 208 204 212 183 223 184
217 227 227 228 229 235 237 247 203 201 195 178 186 216 195 192 194 193 197 199 198 197 199 201 207 213 218 218 214 215 209 212 211 209 211 218 210 223 237 230 231 217 198 207 204 184 179 192 256
214 224 230 239 240 247 238 223 234 182 217 192 206 242 220 181 189 192 197 198 199 198 199 200 205 213 218 221 217 217 216 213 214 213 202 212 207 216 225 232 241 228 221 211 208 200 176 183 217
227 219 221 233 239 241 239 251 226 191 140 228 188 201 230 187 190 188 195 197 198 199 201 202 204 213 218 221 223 218 222 218 218 216 215 215 210 211 229 234 239 234 217 220 219 200 199 203 198
210 228 236 229 239 246 245 244 236 194 181 191 198 202 228 224 190 188 191 196 196 198 199 201 205 209 216 222 223 221 223 225 221 218 217 224 216 211 226 235 241 238 225 221 215 204 212 235 222
222 212 230 238 224 237 256 246 235 236 225 188 202 215 219 223 226 200 189 189 190 193 197 199 201 203 215 219 221 221 223 226 228 223 223 225 230 222 222 231 239 240 232 225 218 204 208 237 241